METEOR M2-3

导读 | 豆包AI

**METEOR M2-3(流星-M2-3)卫星**,于2023年6月27日由独联体(CIS)地区俄罗斯使用联盟-2.1b火箭自东方航天发射场发射,属于俄罗斯"流星-M"系列新一代气象卫星。发射质量3250千克,运行于832千米高度轨道,核心任务为水文气象保障、气候环境监测、地球资源勘探及近地空间日地物理观测,搭载搜救系统与相控阵雷达,可全天候服务北海航线监测,入轨后已正常传回天气观测数据。

Basic Information
目录编号:
57166
目录名称:
METEOR M2-3
国际标识:
2023-091A
轨道中心:
EARTH
卫星名称:
METEOR M2-3
卫星全名:
--
卫星状态:
在轨 (已飞行992 天)
发射日期:
2023-06-27 UTC
国别 :
俄罗斯(独联体) (CIS)
星等 :
--
Orbit Information
数据来源 国际轨道数据 AOE轨道数据
星历时间 2026-03-15T06:43:21+0800
13小时前
查看轨道信息
2026-03-11T00:00:00+0800
4天前
查看轨道信息
半长轴 7189.866km 7189.861km
偏心率 0.0005099 0.0005015
轨道倾角 98.620° 98.621°
近地点辐角 87.333° 94.782°
升交点赤经 130.805° 126.609°
平近点角 272.843° 295.740°
近地点 808.062km 808.118km
远地点 815.396km 815.33km
周期 101.121分钟 101.121分钟
每日圈数 14.240381 14.240396
Detailed Information
使用方式:
暂无
2D Orbit Map
3D Orbit Map
Orbit Altitude Analysis Chart
Orbit Inclination Analysis Chart
Orbit Comprehensive Analysis Chart
View Comprehensive Chart